Simultaneous Nadir Overpasses (SNOs) Predictions

Prediction of SNOs between LANDSAT-8 and NPP Satellite Orbit:

Table of predicted SNOs for the next 14.0 days since TLE Epoch: 12/11/2016
Index Date (LANDSAT-8) Time (LANDSAT-8) Lat,Lon (LANDSAT-8) SZA (LANDSAT-8 ) Date (NPP) Time (NPP) Lat,Lon (NPP) SZA (NPP ) Distance(km) Time Diff (sec)
1 12/13/2016 06:09:01 -70.86, -94.70 86.08 12/13/2016 06:07:53 -70.94, -96.87 85.97 79.40 68
2 12/13/2016 06:58:40 70.10, 71.82 93.18 12/13/2016 06:58:23 70.10, 71.77 93.19 1.94 17
3 12/13/2016 07:48:10 -69.99,-120.70 86.94 12/13/2016 07:49:05 -70.00,-120.75 86.92 2.41 55
4 12/15/2016 22:25:42 -70.16, 20.14 86.62 12/15/2016 22:24:33 -70.17, 20.13 86.60 1.72 69
5 12/15/2016 23:15:09 70.05,-172.36 93.28 12/15/2016 23:15:17 70.07,-172.41 93.30 3.12 8
6 12/16/2016 00:04:43 -69.72, -5.19 87.05 12/16/2016 00:05:54 -69.70, -4.54 87.08 25.08 71
7 12/18/2016 14:42:11 -70.11, 135.96 86.58 12/18/2016 14:41:26 -70.09, 136.03 86.60 3.27 45
8 12/18/2016 15:31:38 70.00, -56.55 93.32 12/18/2016 15:32:10 69.99, -56.52 93.31 1.48 32
9 12/21/2016 06:08:59 70.76, 85.17 94.10 12/21/2016 06:07:50 70.81, 83.35 94.18 66.84 69
10 12/21/2016 06:58:40 -70.05,-108.24 86.60 12/21/2016 06:58:20 -70.06,-108.16 86.59 3.13 20
11 12/21/2016 07:48:06 69.99, 59.32 93.35 12/21/2016 07:49:04 69.97, 59.29 93.32 3.10 58
12 12/23/2016 22:25:37 70.15,-159.85 93.48 12/23/2016 22:24:31 70.15,-159.84 93.49 0.61 66
13 12/23/2016 23:15:07 -70.05, 7.63
